Location: Newark
(48.3453°N, 0.5589°E)
Time: 21:18:51
(UTC+00:00)

A-11 Canister half - Pass Details

Date: 12 December 2019
Orbit: 1517 x 1683 km, 47.2° (Epoch: 21 January)

Event Time Altitude Azimuth Distance (km) Brightness Sun altitude
Rises 15:27:03 0° 278° (W) 4,817 12.2 3.9°
Reaches altitude 10° 15:30:07 10° 278° (W) 3,852 11.8 3.5°
Maximum altitude 15:40:00 79° 194° (SSW) 1,691 9.5 2.2°
Drops below altitude 10° 15:50:08 10° 110° (ESE) 3,941 10.9 0.9°
Sets 15:53:18 0° 109° (ESE) 4,932 11.3 0.5°
